When you browse on this site, cookies collect data to enhance your experience and personalize the content and advertising you see.
Visit our Privacy Policy to learn more. By continuing to use the site, you agree to this use of cookies and data.
  • en Suisse
  • Liste des pays
  • À 7 jours
  • Température de l'eau
  • Carte satellitaire
  • Carte météo
  • Widgets météo
  • user-avatar
    Se connecter

    Météo par heure à Yanggu

    Ce jour, 27 Mai, Lundi

    Heure Température Précipitation Vent Pression Humidité
    00:00 +24°C° 0 mm 8 m/s 750 mmHg 70%
    01:00 +24°C° 0 mm 7 m/s 751 mmHg 65%
    02:00 +23°C° 0 mm 5 m/s 752 mmHg 61%
    03:00 +23°C° 0 mm 5 m/s 753 mmHg 60%
    04:00 +22°C° 0 mm 5 m/s 753 mmHg 60%
    05:00 +22°C° 0 mm 6 m/s 754 mmHg 59%
    06:00 +22°C° 0 mm 7 m/s 755 mmHg 53%
    07:00 +23°C° 0 mm 8 m/s 756 mmHg 48%
    08:00 +23°C° 0 mm 10 m/s 757 mmHg 42%
    09:00 +24°C° 0 mm 9 m/s 757 mmHg 36%
    10:00 +26°C° 0 mm 9 m/s 757 mmHg 29%
    11:00 +28°C° 0 mm 9 m/s 758 mmHg 23%
    12:00 +29°C° 0 mm 9 m/s 758 mmHg 21%
    13:00 +29°C° 0 mm 8 m/s 758 mmHg 19%
    14:00 +30°C° 0 mm 7 m/s 757 mmHg 16%
    15:00 +30°C° 0 mm 7 m/s 757 mmHg 16%
    16:00 +30°C° 0 mm 6 m/s 757 mmHg 15%
    17:00 +30°C° 0 mm 6 m/s 757 mmHg 14%
    18:00 +29°C° 0 mm 5 m/s 757 mmHg 15%
    19:00 +27°C° 0 mm 3 m/s 758 mmHg 15%
    20:00 +26°C° 0 mm 2 m/s 758 mmHg 16%
    21:00 +25°C° 0 mm 2 m/s 758 mmHg 17%
    22:00 +25°C° 0 mm 2 m/s 759 mmHg 17%
    23:00 +24°C° 0 mm 1 m/s 759 mmHg 17%

    Demain, 28 Mai, Mardi

    Heure Température Précipitation Vent Pression Humidité
    00:00 +23°C° 0 mm 2 m/s 759 mmHg 20%
    01:00 +23°C° 0 mm 2 m/s 759 mmHg 23%
    02:00 +21°C° 0 mm 2 m/s 759 mmHg 26%
    03:00 +20°C° 0 mm 2 m/s 759 mmHg 28%
    04:00 +20°C° 0 mm 2 m/s 759 mmHg 30%
    05:00 +19°C° 0 mm 2 m/s 759 mmHg 32%
    06:00 +21°C° 0 mm 2 m/s 759 mmHg 29%
    07:00 +24°C° 0 mm 3 m/s 759 mmHg 26%
    08:00 +27°C° 0 mm 3 m/s 760 mmHg 23%
    09:00 +28°C° 0 mm 3 m/s 759 mmHg 20%
    10:00 +30°C° 0 mm 3 m/s 759 mmHg 16%
    11:00 +33°C° 0 mm 3 m/s 759 mmHg 13%
    12:00 +34°C° 0 mm 3 m/s 758 mmHg 12%
    13:00 +35°C° 0 mm 3 m/s 757 mmHg 11%
    14:00 +35°C° 0 mm 3 m/s 757 mmHg 9%
    15:00 +36°C° 0 mm 3 m/s 756 mmHg 9%
    16:00 +36°C° 0 mm 3 m/s 755 mmHg 9%
    17:00 +36°C° 0 mm 3 m/s 755 mmHg 9%
    18:00 +34°C° 0 mm 3 m/s 755 mmHg 11%
    19:00 +30°C° 0 mm 3 m/s 755 mmHg 14%
    20:00 +28°C° 0 mm 3 m/s 755 mmHg 16%
    21:00 +27°C° 0 mm 4 m/s 755 mmHg 17%
    22:00 +27°C° 0 mm 4 m/s 756 mmHg 18%
    23:00 +26°C° 0 mm 4 m/s 756 mmHg 19%

    Après-demain, 29 Mai, Mercredi

    Heure Température Précipitation Vent Pression Humidité
    00:00 +25°C° 0 mm 4 m/s 755 mmHg 20%
    01:00 +23°C° 0 mm 4 m/s 755 mmHg 21%
    02:00 +23°C° 0 mm 4 m/s 755 mmHg 22%
    03:00 +22°C° 0 mm 4 m/s 755 mmHg 26%
    04:00 +21°C° 0 mm 4 m/s 755 mmHg 29%
    05:00 +21°C° 0 mm 3 m/s 755 mmHg 33%
    06:00 +25°C° 0 mm 4 m/s 755 mmHg 28%
    07:00 +27°C° 0 mm 5 m/s 755 mmHg 23%
    08:00 +30°C° 0 mm 6 m/s 755 mmHg 18%
    09:00 +33°C° 0 mm 6 m/s 755 mmHg 16%
    10:00 +34°C° 0 mm 6 m/s 755 mmHg 14%
    11:00 +36°C° 0 mm 6 m/s 754 mmHg 12%
    12:00 +36°C° 0 mm 6 m/s 754 mmHg 12%
    13:00 +36°C° 0 mm 7 m/s 753 mmHg 12%
    14:00 +38°C° 0 mm 7 m/s 752 mmHg 12%
    15:00 +36°C° 0 mm 7 m/s 752 mmHg 12%
    16:00 +36°C° 0 mm 7 m/s 751 mmHg 12%
    17:00 +36°C° 0 mm 7 m/s 751 mmHg 13%
    18:00 +34°C° 0 mm 6 m/s 751 mmHg 14%
    19:00 +33°C° 0 mm 5 m/s 751 mmHg 14%
    20:00 +30°C° 0 mm 5 m/s 751 mmHg 15%
    21:00 +30°C° 0 mm 5 m/s 751 mmHg 15%
    22:00 +30°C° 0 mm 6 m/s 751 mmHg 15%
    23:00 +29°C° 0 mm 6 m/s 751 mmHg 15%

    30 Mai, Jeudi

    Heure Température Précipitation Vent Pression Humidité
    00:00 +29°C° 0 mm 6 m/s 751 mmHg 16%
    01:00 +29°C° 0 mm 7 m/s 750 mmHg 17%
    02:00 +28°C° 0 mm 7 m/s 750 mmHg 18%
    03:00 +28°C° 0 mm 7 m/s 750 mmHg 21%
    04:00 +27°C° 0 mm 7 m/s 750 mmHg 23%
    05:00 +27°C° 0 mm 7 m/s 749 mmHg 25%
    06:00 +28°C° 0 mm 6 m/s 750 mmHg 26%
    07:00 +29°C° 0 mm 6 m/s 750 mmHg 27%
    08:00 +30°C° 0 mm 5 m/s 750 mmHg 28%
    09:00 +32°C° 0 mm 5 m/s 751 mmHg 27%
    10:00 +33°C° 0 mm 4 m/s 751 mmHg 25%
    11:00 +35°C° 0 mm 3 m/s 751 mmHg 24%
    12:00 +36°C° 0 mm 4 m/s 751 mmHg 22%
    13:00 +37°C° 0 mm 4 m/s 751 mmHg 21%
    14:00 +38°C° 0 mm 4 m/s 750 mmHg 19%
    15:00 +36°C° 0 mm 5 m/s 750 mmHg 18%
    16:00 +35°C° 0 mm 7 m/s 751 mmHg 18%
    17:00 +34°C° 0 mm 8 m/s 751 mmHg 17%
    18:00 +32°C° 0 mm 7 m/s 751 mmHg 17%
    19:00 +30°C° 0 mm 6 m/s 752 mmHg 17%
    20:00 +28°C° 0 mm 5 m/s 752 mmHg 17%
    21:00 +27°C° 0 mm 4 m/s 753 mmHg 18%
    22:00 +26°C° 0 mm 3 m/s 754 mmHg 19%
    23:00 +24°C° 0 mm 3 m/s 754 mmHg 19%

    31 Mai, Vendredi

    Heure Température Précipitation Vent Pression Humidité
    00:00 +24°C° 0 mm 2 m/s 754 mmHg 20%
    01:00 +23°C° 0 mm 2 m/s 754 mmHg 20%
    02:00 +22°C° 0 mm 1 m/s 754 mmHg 21%
    03:00 +22°C° 0 mm 1 m/s 754 mmHg 21%
    04:00 +21°C° 0 mm 1 m/s 755 mmHg 21%
    05:00 +21°C° 0 mm 1 m/s 755 mmHg 22%
    06:00 +23°C° 0 mm 1 m/s 755 mmHg 20%
    07:00 +25°C° 0 mm 1 m/s 755 mmHg 18%
    08:00 +27°C° 0 mm 1 m/s 756 mmHg 16%
    09:00 +29°C° 0 mm 1 m/s 756 mmHg 14%
    10:00 +31°C° 0 mm 1 m/s 755 mmHg 12%
    11:00 +34°C° 0 mm 1 m/s 755 mmHg 11%
    12:00 +34°C° 0 mm 1 m/s 754 mmHg 10%
    13:00 +35°C° 0 mm 1 m/s 753 mmHg 10%
    14:00 +37°C° 0 mm 2 m/s 752 mmHg 9%
    15:00 +37°C° 0 mm 2 m/s 752 mmHg 10%
    16:00 +37°C° 0 mm 2 m/s 751 mmHg 10%
    17:00 +37°C° 0 mm 2 m/s 751 mmHg 10%
    18:00 +35°C° 0 mm 2 m/s 751 mmHg 12%
    19:00 +34°C° 0 mm 3 m/s 751 mmHg 13%
    20:00 +31°C° 0 mm 3 m/s 751 mmHg 14%
    21:00 +30°C° 0 mm 3 m/s 751 mmHg 15%
    22:00 +29°C° 0 mm 3 m/s 751 mmHg 16%
    23:00 +28°C° 0 mm 4 m/s 751 mmHg 16%

    1 Juin, Samedi

    Heure Température Précipitation Vent Pression Humidité
    00:00 +28°C° 0 mm 4 m/s 751 mmHg 18%
    01:00 +28°C° 0 mm 5 m/s 750 mmHg 19%
    02:00 +28°C° 0 mm 6 m/s 750 mmHg 20%
    03:00 +27°C° 0 mm 5 m/s 749 mmHg 26%
    04:00 +27°C° 0 mm 5 m/s 749 mmHg 31%
    05:00 +27°C° 0 mm 5 m/s 749 mmHg 37%
    06:00 +28°C° 0 mm 6 m/s 749 mmHg 36%
    07:00 +30°C° 0 mm 6 m/s 749 mmHg 34%
    08:00 +33°C° 0 mm 7 m/s 749 mmHg 33%
    09:00 +35°C° 0 mm 7 m/s 748 mmHg 29%
    10:00 +38°C° 0 mm 8 m/s 748 mmHg 24%
    11:00 +40°C° 0 mm 8 m/s 747 mmHg 20%
    12:00 +41°C° 0 mm 8 m/s 747 mmHg 18%
    13:00 +43°C° 0 mm 7 m/s 746 mmHg 16%
    14:00 +44°C° 0 mm 7 m/s 745 mmHg 14%
    15:00 +44°C° 0 mm 7 m/s 745 mmHg 13%
    16:00 +44°C° 0 mm 7 m/s 744 mmHg 13%
    17:00 +44°C° 0 mm 7 m/s 744 mmHg 13%
    18:00 +41°C° 0 mm 6 m/s 744 mmHg 15%
    19:00 +39°C° 0 mm 6 m/s 744 mmHg 17%
    20:00 +36°C° 0 mm 5 m/s 745 mmHg 19%
    21:00 +36°C° 0 mm 6 m/s 745 mmHg 21%
    22:00 +35°C° 0 mm 7 m/s 745 mmHg 22%
    23:00 +34°C° 0 mm 8 m/s 745 mmHg 24%
    Voir plus